Location: ??????
(38.0131°N, 23.7723°E)
Time: 05:38:08
(UTC+00:00)

Cosmos 2369 - Pass Details

Date: 17 October 2021
Orbit: 838 x 857 km, 71.0° (Epoch: 28 November)

Event Time Altitude Azimuth Distance (km) Brightness Sun altitude
Rises 16:46:12 0° 213° (SSW) 3,377 7.4 -12.9°
Reaches altitude 10° 16:48:41 10° 218° (SW) 2,448 6.7 -13.4°
Maximum altitude 16:54:10 55° 296° (WNW) 1,011 4.5 -14.5°
Drops below altitude 10° 16:59:44 10° 13° (NNE) 2,472 6.0 -15.6°
Sets 17:02:16 0° 18° (NNE) 3,414 6.7 -16.1°
